Location: El Chorro
(10.0985°N, 67.3542°W)
Time: 17:57:40
(UTC+00:00)

Intelsat 5-1 Rocket - Pass Details

Date: 15 November 2025
Orbit: 307 x 6818 km, 23.9° (Epoch: 06 December)

Event Time Altitude Azimuth Distance (km) Brightness Sun altitude
Rises 22:23:01 0° 263° (W) 2,176 7.1 -5.3°
Reaches altitude 10° 22:24:34 10° 270° (W) 1,504 5.5 -5.7°
Maximum altitude 22:27:35 47° 347° (NNW) 805 2.6 -6.4°
Drops below altitude 10° 22:34:04 10° 60° (ENE) 3,206 5.1 -7.9°
Enters shadow 22:34:43 - 61° (ENE) 3,478 5.2 -8.0°
